Regional Weather Roundup
Issued by NWS

Home | Current Version | Previous Version | Graphics & Text | Print | Product List | Glossary On
Versions: 1 2 3 4 5 6 7 8 9 10 11 12 13 14 15 16 17 18 19 20 21 22 23 24 25 26 27 28 29 30 31 32 33 34 35 36 37 38 39 40 41 42 43 44 45 46 47 48 49 50
000
ASUS45 KBOI 280310
RWRID

IDAHO REGIONAL WEATHER ROUNDUP
NATIONAL WEATHER SERVICE BOISE ID
900 PM MDT THU AUG 27 2015

NOTE: "FAIR" INDICATES FEW OR NO CLOUDS BELOW 12000 FEET
WITH NO SIGNIFICANT WEATHER AND/OR OBSTRUCTIONS TO VISIBILITY

IDZ012-014-280400-
SOUTHWEST IDAHO


CITY           SKY/WX    TMP DP  RH WIND       PRES   REMARKS
BOISE          PTCLDY    82  38  20 N5        30.00S
CALDWELL         N/A     77  46  33 NE3       30.00R
MOUNTAIN HOME  CLEAR     85  33  16 N6        30.01R
$$

IDZ016-017-280400-
SOUTHCENTRAL IDAHO


CITY           SKY/WX    TMP DP  RH WIND       PRES   REMARKS
BURLEY         CLEAR     72  45  37 S7        30.11R
JEROME         CLEAR     69  45  41 E7        30.10R
TWIN FALLS     CLEAR     71  37  28 SE6       30.11S
$$

IDZ019>023-280400-
SOUTHEAST IDAHO


CITY           SKY/WX    TMP DP  RH WIND       PRES   REMARKS
IDAHO FALLS    CLEAR     71  50  47 SE6       30.13R
POCATELLO      CLEAR     73  42  32 S10       30.13S
REXBURG        PTCLDY    66  42  41 W3        30.15R
$$

IDZ006-010-011-018-031-032-280400-
CENTRAL IDAHO MOUNTAINS


CITY           SKY/WX    TMP DP  RH WIND       PRES   REMARKS
MCCALL         PTCLDY    69  37  30 CALM      30.17R
HAILEY         CLEAR     72  32  23 NW5       30.20R
STANLEY          N/A     62  28  27 VRB3      30.28R
SALMON         CLOUDY    77  39  25 N8        30.04R
CHALLIS        MOCLDY    78  24  13 W14       30.13R
$$

IDZ002-004-006-007-026-280400-
NORTHERN IDAHO


CITY           SKY/WX    TMP DP  RH WIND       PRES   REMARKS
LEWISTON       PTCLDY    85  41  21 N3        29.94R
LOWELL           N/A     66  56  70 CALM      29.97R
COEUR D`ALENE  MOCLDY    75  39  27 SW8       29.98R
MULLAN PASS    PTCLDY    63  36  36 VRB6      30.22R
$$



USA.gov is the U.S. government's official web portal to all federal, state and local government web resources and services.